Starlink 2646

operational
NORAD ID: 48642 Int'l Des: 2021-044 Owner: SPXS Country: US Constellation: starlink
LEOCIRCULARSTARLINK_TYPE

Starlink 2646について

説明を読み込み中...

リアルタイム位置

3D地球を読み込み中...

次回通過

高度履歴

Altitude vs Time

uPlot chart will show altitude changes over time

軌道要素

1 48642U 21044E 26036.02217806 -.00004157 00000-0 -13179-3 0 9991
2 48642 53.1559 265.6655 0001179 87.6005 272.5130 15.29357553258823
Epoch: Feb 5, 2026 • Age: 11 hours

現在のステータス

高度 478.5 km
速度 7.63 km/s
衛星直下点 1.08°N, 44.04°W
打ち上げ日 May 26, 2021
運用期間 4.6 years
タイプ internet

技術仕様

分類 Payload
質量 260.00 kg
乾燥質量 248.00 kg
総質量 260.00 kg
長さ 0.20 m
直径 2.80 m
スパン 9.00 m
形状 Box + pan
製造者 SPXS
バスタイプ Starlink
フェーズステータス In Orbit
所有者/国 SPXS/US

大規模コンステレーション

Loading constellations...